EB5EEV-5 Weather Reports


time (UTC)temp
F
wind
direction
speed
knots
gust
knots
rain 1hr
in
rain 24hr
in
rain mn
in
humidity
%
barometer
mb
20260506202659 0 0 0.0 0.0 0.00 0.00 0.00 100 1008.6
20260506201158 0 0 0.0 0.0 0.00 0.00 0.00 100 1008.3
20260506195735 0 0 0.0 0.0 0.00 0.00 0.00 100 1007.9
20260506194305 0 0 0.0 0.0 0.00 0.00 0.00 100 1007.8
20260506192856 0 0 0.0 0.0 0.00 0.00 0.00 100 1007.7
20260506191449 0 0 0.0 0.0 0.00 0.00 0.00 100 1007.6
20260506190201 0 0 0.0 0.0 0.00 0.00 0.00 100 1007.6
20260506184836 0 0 0.0 0.0 0.00 0.00 0.00 100 1007.6
20260506183551 0 0 0.0 0.0 0.00 0.00 0.00 100 1007.6
20260506182336 0 0 0.0 0.0 0.00 0.00 0.00 100 1007.5
20260506181011 0 0 0.0 0.0 0.00 0.00 0.00 100 1007.6
20260506175731 0 0 0.0 0.0 0.00 0.00 0.00 100 1007.6
20260506174319 0 0 0.0 0.0 0.00 0.00 0.00 100 1007.5
20260506172945 0 0 0.0 0.0 0.00 0.00 0.00 100 1007.6
20260506171628 0 0 0.0 0.0 0.00 0.00 0.00 100 1007.6
20260506170136 0 0 0.0 0.0 0.00 0.00 0.00 100 1007.5
20260506164748 0 0 0.0 0.0 0.00 0.00 0.00 100 1007.6
20260506163525 0 0 0.0 0.0 0.00 0.00 0.00 100 1007.6
20260506162144 0 0 0.0 0.0 0.00 0.00 0.00 100 1007.5
20260506160801 0 0 0.0 0.0 0.00 0.00 0.00 100 1007.7
20260506155545 0 0 0.0 0.0 0.00 0.00 0.00 100 1007.7
20260506154244 68 0 0.0 0.0 0.00 0.00 0.00 6 1007.5
20260506152803 68 330 2.6 2.6 0.00 0.00 0.00 6 1007.5
20260506151436 68 328 5.2 8.7 0.00 0.00 0.00 6 1007.4
20260506145941 68 136 1.7 2.6 0.00 0.00 0.00 6 1007.6
20260506144631 68 136 1.7 2.6 0.00 0.00 0.00 6 1007.6
20260506143249 68 326 0.9 5.2 0.00 0.00 0.00 6 1007.8
20260506142005 68 318 2.6 2.6 0.00 0.00 0.00 6 1007.9
20260506140801 68 290 1.7 5.2 0.00 0.00 0.00 6 1008.1
20260506135359 67 273 0.9 1.7 0.00 0.00 0.00 6 1008.3
20260506134151 69 293 0.9 3.5 0.00 0.00 0.00 6 1008.2
20260506132844 69 332 7.0 8.7 0.00 0.00 0.00 6 1008.2
20260506131438 68 316 0.9 2.6 0.00 0.00 0.00 6 1008.3
20260506130030 0 0 0.0 0.0 0.00 0.00 0.00 100 1008.5
20260506124830 0 0 0.0 0.0 0.00 0.00 0.00 100 1008.5
20260506123344 0 0 0.0 0.0 0.00 0.00 0.00 100 1008.5
20260506122005 0 0 0.0 0.0 0.00 0.00 0.00 100 1008.4
20260506120546 66 185 1.7 7.0 0.00 0.00 0.00 6 1009.2
20260506115330 66 185 1.7 7.0 0.00 0.00 0.00 6 1009.2
20260506114026 66 185 1.7 7.0 0.00 0.00 0.00 6 1009.2
20260506112550 66 185 1.7 7.0 0.00 0.00 0.00 6 1009.2
20260506111336 66 185 1.7 7.0 0.00 0.00 0.00 6 1009.2
20260506110046 66 185 1.7 7.0 0.00 0.00 0.00 6 1009.2
20260506105615 66 185 1.7 7.0 0.00 0.00 0.00 6 1009.2
20260506104339 67 216 0.9 7.0 0.00 0.00 0.00 6 1009.2
20260506102919 68 0 0.0 0.9 0.00 0.00 0.00 6 1009.1
20260506101621 68 0 0.0 0.9 0.00 0.00 0.00 6 1009.1
20260506100326 68 229 1.7 7.0 0.00 0.00 0.00 6 1009.3
20260506095026 67 165 1.7 1.7 0.00 0.00 0.00 6 1009.2
20260506093816 66 244 2.6 5.2 0.00 0.00 0.00 6 1009.2
20260506092340 67 148 0.9 3.5 0.00 0.00 0.00 6 1009.0
20260506091101 67 148 1.7 2.6 0.00 0.00 0.00 7 1009.0
20260506085829 65 153 0.9 5.2 0.00 0.00 0.00 7 1008.9
20260506084351 65 148 4.3 5.2 0.00 0.00 0.00 7 1008.9
20260506082936 0 0 0.0 0.0 0.00 0.00 0.00 100 1008.8
20260506081711 0 0 0.0 0.0 0.00 0.00 0.00 100 1008.8
20260506080246 0 0 0.0 0.0 0.00 0.00 0.00 100 1008.7
20260506072329 0 0 0.0 0.0 0.00 0.00 0.00 100 1008.6
20260506070945 0 0 0.0 0.0 0.00 0.00 0.00 100 1008.7
20260506061836 62 0 0.0 0.0 0.00 0.00 0.00 7 1008.8
20260506060611 62 125 0.9 1.7 0.00 0.00 0.00 7 1008.7
20260506051401 61 172 0.9 0.9 0.00 0.00 0.00 7 1008.1
20260506044805 62 0 0.0 0.0 0.00 0.00 0.00 8 1008.0
20260506043520 62 0 0.0 1.7 0.00 0.00 0.00 8 1007.9
20260506042216 62 129 0.9 1.7 0.00 0.00 0.00 8 1007.9
20260506040903 62 0 0.0 0.9 0.00 0.00 0.00 8 1007.8
20260506035531 62 165 1.7 4.3 0.00 0.00 0.00 8 1007.9
20260506034156 63 0 0.0 0.9 0.00 0.00 0.00 8 1007.9
20260506032944 63 0 0.0 0.9 0.00 0.00 0.00 8 1007.9
20260506030237 63 0 0.0 0.9 0.00 0.00 0.00 8 1007.8
20260506024934 63 0 0.0 0.0 0.00 0.00 0.00 8 1007.9
20260506023516 63 133 1.7 1.7 0.00 0.00 0.00 8 1007.9
20260506022051 63 130 0.9 1.7 0.00 0.00 0.00 8 1008.0
20260506020656 64 0 0.0 0.9 0.00 0.00 0.00 8 1008.0
20260506015246 64 0 0.0 1.7 0.00 0.00 0.00 8 1007.9
20260506014018 64 0 0.0 0.9 0.00 0.00 0.00 8 1008.0
20260506012806 64 126 0.9 0.9 0.00 0.00 0.00 8 1008.1
20260506011512 64 124 0.9 1.7 0.00 0.00 0.00 8 1008.1
20260506010126 64 124 0.9 1.7 0.00 0.00 0.00 8 1008.1
20260506004818 64 152 0.9 1.7 0.00 0.00 0.00 7 1008.3
20260506003559 64 127 0.9 1.7 0.00 0.00 0.00 8 1008.4
20260506002401 64 146 0.9 1.7 0.00 0.00 0.00 8 1008.5
20260506001036 64 163 1.7 1.7 0.00 0.00 0.00 8 1008.5
20260505235541 64 157 1.7 3.5 0.00 0.00 0.00 8 1008.5
20260505234241 64 116 7.8 7.8 0.00 0.00 0.00 8 1008.4
20260505232854 64 143 4.3 7.8 0.00 0.00 0.00 8 1008.4
20260505231611 64 143 4.3 7.8 0.00 0.00 0.00 8 1008.4
20260505230140 64 128 2.6 5.2 0.00 0.00 0.00 8 1008.4
20260505224925 64 133 5.2 11.3 0.00 0.00 0.00 8 1008.3
20260505223701 65 155 3.5 9.6 0.00 0.00 0.00 8 1008.0
20260505222256 65 131 3.5 8.7 0.00 0.00 0.00 8 1007.7
20260505220901 66 113 6.1 8.7 0.00 0.00 0.00 8 1007.7
20260505215611 69 83 2.6 8.7 0.00 0.00 0.00 5 1007.3
20260505214132 69 121 5.2 7.8 0.00 0.00 0.00 5 1006.9
20260505212929 70 97 1.7 3.5 0.00 0.00 0.00 5 1006.8
20260505211533 70 153 2.6 6.1 0.00 0.00 0.00 4 1006.7
20260505210121 70 153 2.6 6.1 0.00 0.00 0.00 4 1006.7
20260505204819 70 143 1.7 3.5 0.00 0.00 0.00 4 1006.6